Regional Weather Roundup
Issued by NWS

Home | Current Version | Previous Version | Graphics & Text | Print | Product List | Glossary Off
Versions: 1 2 3 4 5 6 7 8 9 10 11 12 13 14 15 16 17 18 19 20 21 22 23 24 25 26 27 28 29 30 31 32 33 34 35 36 37 38 39 40 41 42 43 44 45 46 47 48 49 50

000
ASUS44 KMEG 071810
RWRTN
TENNESSEE HOURLY STATE WEATHER ROUNDUP
NATIONAL WEATHER SERVICE MEMPHIS TN
1200 PM CST SUN FEB 07 2016

TNZ002-004-019-021-049-052-054-088>092-071900-
WEST TENNESSEE

CITY           SKY/WX    TMP DP  RH WIND       PRES   REMARKS
MEMPHIS INTL   MOSUNNY   58  26  29 W14G26    30.15F
NWS MEMPHIS      N/A     56 N/A N/A MISG        N/A
JACKSON        SUNNY     56  25  30 SW13      30.13F
DYERSBURG      SUNNY     55  25  30 W21       30.12F
UNION CITY     SUNNY     54  28  37 SW13      30.09F
PARIS          SUNNY     52  25  35 SW13      30.10F
$$

TNZ008-025-027-028-033-062-065-066-071900-
NORTH MIDDLE TENNESSEE

CITY           SKY/WX    TMP DP  RH WIND       PRES   REMARKS
NASHVILLE      MOSUNNY   54  19  25 S8        30.12F
CLARKSVILLE    SUNNY     53  23  31 SW13      30.10F
SMYRNA         SUNNY     54  23  30 VRB7      30.13F
COOKEVILLE     SUNNY     48  27  43 S5        30.11F
CROSSVILLE     SUNNY     48  19  31 VRB6      30.10F
$$

TNZ061-075-076-078-094-096-097-071900-
SOUTH MIDDLE TENNESSEE

CITY           SKY/WX    TMP DP  RH WIND       PRES   REMARKS
FAYETTEVILLE   SUNNY     52  23  32 SW8G14    30.14F
TULLAHOMA      SUNNY     52  18  25 S5        30.13F
WINCHESTER     SUNNY     50  23  34 CALM      30.14F
MCMINNVILLE    SUNNY     52  25  35 SW8       30.12F
COLUMBIA       SUNNY     54  25  32 SW7       30.12F
SHELBYVILLE    SUNNY     54  25  32 S6        30.14F
$$

TNZ017-018-042-046-047-071900-
NORTHEAST TENNESSEE

CITY           SKY/WX    TMP DP  RH WIND       PRES   REMARKS
TRI CITIES     MOSUNNY   47  24  40 W10       30.09F
$$

TNZ012-013-036-069-073-074-071900-
CENTRAL EAST TENNESSEE

CITY           SKY/WX    TMP DP  RH WIND       PRES   REMARKS
KNOXVILLE      MOSUNNY   49  23  36 SW5       30.13F
OAK RIDGE      SUNNY     51  23  33 S5        30.13F
GATLINBURG       N/A     48  19  32 CALM      30.11F
MORRISTOWN     CLEAR     48  23  37 CALM      30.09F
$$

TNZ083-085-099-071900-
SOUTHEAST TENNESSEE

CITY           SKY/WX    TMP DP  RH WIND       PRES   REMARKS
CHATTANOOGA    MOSUNNY   52  20  28 S5        30.14F
$$

SKY/WX REPORTED AS FAIR MEANS FEW OR NO CLOUDS BELOW
12 THOUSAND FEET.




USA.gov is the U.S. government's official web portal to all federal, state and local government web resources and services.